GEC756 VABB-EDDF

Flight info

Callsign GEC756
Flight time N/A
Altitude 30000
Route RAXET2A SAKUN V2 BIMOT V1 KARKU W103 DOGET N571 PARAR M628 IVOMA/N0506F320 M628 PEKEM DCT MEDPO DCT SITUK M321 IVONU Z710 GAS G662 EGVOP/N0490F340 G662 NIMAR L550 NOVPA N697 MENLI L677 CVO L617 NOZ L551 ANTAR DCT RIGRO DCT FSK UL608 DISOR DCT LONTA UL608 DOLEV DCT MITNO/N0483F360 DCT DOBOT DCT BEDOX DCT RADLY DCT SIMBA DCT AKINI T161 DEBHI DEBHI1C
Aircraft B77L/H-SDE1E2E3FGHIJ2J3J4J5M1RWXY/LB1D1

Departure

Time 2026-04-30 05:14
Airport Chhatrapati Shivaji Maharaj International Airport (VABB)

Arrival

Time N/A
Airport Frankfurt Main Airport (EDDF)
Time Latitude Longitude Altitude Speed Heading
2026-04-30 04:14 19.09265 72.85936 42 ft 0 kts 346°
2026-04-30 04:54 19.09263 72.85936 42 ft 0 kts 346°
2026-04-30 04:56 19.09251 72.85940 41 ft 2 kts 346°
2026-04-30 04:56 19.09241 72.85944 39 ft 2 kts 297°
2026-04-30 04:56 19.09239 72.85955 40 ft 2 kts 236°
2026-04-30 04:57 19.09241 72.85960 40 ft 0 kts 228°
2026-04-30 05:06 19.09234 72.85955 39 ft 7 kts 211°
2026-04-30 05:06 19.09176 72.85987 41 ft 11 kts 108°
2026-04-30 05:06 19.09198 72.86065 43 ft 11 kts 89°
2026-04-30 05:06 19.09145 72.86127 41 ft 12 kts 140°
2026-04-30 05:07 19.09081 72.86193 39 ft 14 kts 134°
2026-04-30 05:07 19.09062 72.86214 39 ft 14 kts 131°
2026-04-30 05:07 19.09056 72.86222 39 ft 14 kts 130°
2026-04-30 05:08 19.09038 72.86323 39 ft 14 kts 90°
2026-04-30 05:08 19.09039 72.86426 40 ft 14 kts 89°
2026-04-30 05:08 19.09040 72.86531 39 ft 14 kts 90°
2026-04-30 05:08 19.09040 72.86634 39 ft 14 kts 90°
2026-04-30 05:09 19.09043 72.86738 39 ft 14 kts 89°
2026-04-30 05:09 19.09044 72.86842 39 ft 14 kts 89°
2026-04-30 05:09 19.09046 72.86946 38 ft 14 kts 90°
2026-04-30 05:09 19.09047 72.87050 38 ft 14 kts 89°
2026-04-30 05:10 19.09049 72.87154 38 ft 14 kts 88°
2026-04-30 05:10 19.09052 72.87258 38 ft 14 kts 88°
2026-04-30 05:10 19.09052 72.87362 38 ft 14 kts 90°
2026-04-30 05:10 19.09053 72.87466 38 ft 14 kts 89°
2026-04-30 05:11 19.09054 72.87568 37 ft 14 kts 89°
2026-04-30 05:11 19.09055 72.87672 37 ft 14 kts 89°
2026-04-30 05:11 19.09057 72.87775 37 ft 14 kts 89°
2026-04-30 05:11 19.09059 72.87878 37 ft 14 kts 89°
2026-04-30 05:12 19.09061 72.87975 37 ft 12 kts 89°
2026-04-30 05:12 19.09045 72.88039 36 ft 5 kts 143°
2026-04-30 05:12 19.09022 72.88047 37 ft 0 kts 168°
2026-04-30 05:12 19.09014 72.88049 37 ft 2 kts 168°
2026-04-30 05:13 19.08996 72.88052 36 ft 3 kts 172°
2026-04-30 05:13 19.08968 72.88047 36 ft 6 kts 200°
2026-04-30 05:13 19.08911 72.87972 36 ft 20 kts 241°
2026-04-30 05:13 19.08886 72.87801 37 ft 34 kts 269°
2026-04-30 05:14 19.08875 72.87174 39 ft 139 kts 269°
2026-04-30 05:14 19.08851 72.85843 331 ft 202 kts 269°
2026-04-30 05:14 19.08824 72.84386 1607 ft 197 kts 270°
2026-04-30 05:14 19.08824 72.82892 2724 ft 214 kts 271°
2026-04-30 05:15 19.08843 72.81221 3627 ft 240 kts 270°
2026-04-30 05:15 19.09078 72.79512 4949 ft 239 kts 294°
2026-04-30 05:15 19.09869 72.77940 6275 ft 246 kts 298°
2026-04-30 05:15 19.10690 72.76253 7312 ft 270 kts 296°
2026-04-30 05:16 19.11500 72.74424 7912 ft 278 kts 294°
2026-04-30 05:16 19.12276 72.72528 8000 ft 283 kts 292°
2026-04-30 05:16 19.13011 72.70603 8007 ft 282 kts 291°
2026-04-30 05:16 19.13707 72.68684 8001 ft 278 kts 290°
2026-04-30 05:17 19.14376 72.66770 8001 ft 277 kts 290°
2026-04-30 05:17 19.15025 72.64859 8007 ft 278 kts 289°
2026-04-30 05:17 19.15672 72.62919 8012 ft 279 kts 289°
2026-04-30 05:17 19.16310 72.60980 8019 ft 279 kts 289°
2026-04-30 05:18 19.16945 72.59034 8490 ft 280 kts 289°
2026-04-30 05:18 19.17578 72.57076 9449 ft 283 kts 289°
2026-04-30 05:18 19.18206 72.55129 10359 ft 286 kts 289°
2026-04-30 05:18 19.18857 72.53102 11261 ft 290 kts 288°
2026-04-30 05:19 19.19509 72.51065 12127 ft 294 kts 288°
2026-04-30 05:19 19.20167 72.49006 12972 ft 298 kts 288°
2026-04-30 05:19 19.20835 72.46913 13794 ft 301 kts 288°
2026-04-30 05:19 19.21509 72.44799 14605 ft 305 kts 288°
2026-04-30 05:20 19.22191 72.42657 15394 ft 309 kts 288°
2026-04-30 05:20 19.22872 72.40518 16160 ft 313 kts 288°
2026-04-30 05:20 19.23579 72.38294 16936 ft 317 kts 288°
2026-04-30 05:20 19.24277 72.36097 17675 ft 320 kts 288°
2026-04-30 05:21 19.24989 72.33854 18394 ft 324 kts 288°
2026-04-30 05:21 19.25712 72.31578 19114 ft 328 kts 288°
2026-04-30 05:21 19.26442 72.29277 19810 ft 332 kts 288°
2026-04-30 05:21 19.27181 72.26949 20491 ft 335 kts 288°
2026-04-30 05:22 19.27924 72.24604 21152 ft 339 kts 288°
2026-04-30 05:22 19.28681 72.22216 21822 ft 343 kts 288°
2026-04-30 05:22 19.29442 72.19811 22463 ft 346 kts 288°
2026-04-30 05:22 19.30208 72.17392 23106 ft 350 kts 288°
2026-04-30 05:23 19.30988 72.14926 23737 ft 353 kts 288°
2026-04-30 05:23 19.31763 72.12475 24338 ft 357 kts 288°
2026-04-30 05:23 19.32559 72.09955 24946 ft 360 kts 288°
2026-04-30 05:23 19.33346 72.07464 25525 ft 364 kts 288°
2026-04-30 05:24 19.34151 72.04914 26107 ft 367 kts 288°
2026-04-30 05:24 19.34964 72.02338 26669 ft 370 kts 288°
2026-04-30 05:24 19.35783 71.99742 27243 ft 374 kts 288°
2026-04-30 05:24 19.36608 71.97124 27778 ft 377 kts 288°
2026-04-30 05:25 19.37448 71.94456 28322 ft 381 kts 288°
2026-04-30 05:25 19.38287 71.91792 28840 ft 384 kts 288°
2026-04-30 05:25 19.39134 71.89099 29363 ft 387 kts 288°
2026-04-30 05:25 19.39987 71.86386 29863 ft 390 kts 288°
2026-04-30 05:26 19.40849 71.83644 30351 ft 393 kts 288°
2026-04-30 05:26 19.41715 71.80887 30823 ft 396 kts 288°
2026-04-30 05:26 19.42589 71.78101 31274 ft 399 kts 288°
2026-04-30 05:26 19.43471 71.75290 31719 ft 402 kts 288°
2026-04-30 05:27 19.44356 71.72469 32143 ft 405 kts 288°
2026-04-30 05:27 19.45243 71.69638 32551 ft 408 kts 288°
2026-04-30 05:27 19.46141 71.66770 32951 ft 411 kts 288°
2026-04-30 05:27 19.46738 71.64862 33209 ft 412 kts 288°
2026-04-30 05:28 19.47865 71.61260 33668 ft 416 kts 288°